Location: Dumpton Point
(51.3500°N, 1.4433°E)
Time: 14:26:02
(UTC+00:00)

Envisat - Pass Details

Date: 09 December 2021
Orbit: 764 x 766 km, 98.2° (Epoch: 28 January)

Event Time Altitude Azimuth Distance (km) Brightness Sun altitude
Rises 05:43:21 0° 10° (N) 3,248 6.2 -18.1°
Reaches altitude 10° 05:45:43 10° 6° (N) 2,317 5.4 -17.8°
Maximum altitude 05:50:37 49° 292° (WNW) 981 3.1 -17.0°
Drops below altitude 10° 05:55:30 10° 219° (SW) 2,300 5.3 -16.3°
Sets 05:57:51 0° 214° (SSW) 3,222 6.1 -16.0°
